User: anonymous   Login
Location: Pulvis Stellarum Observatory
(41.6962°N, 71.4263°W)
Time: 16:44:42
(UTC-04:00)
Language:

Cosmos 1758 - Orbit

View from above orbital plane
View from above orbital plane
View from above satellite
View from above satellite

Ground track
Ground track

The orbit data is extracted from the following two-line orbital elements,

1 16791U 86046A   15116.85331847  .00002778  00000-0  20474-3 0  9995
2 16791 082.4709 073.6018 0015945 224.5499 135.4445 15.02865147568105
Epoch (UTC): 26 April 2015 20:28:46
Eccentricity: 0.0015945
inclination: 82.4709°
perigee height: 547 km
apogee height: 569 km
right ascension of ascending node: 73.6018°
argument of perigee: 224.5499°
revolutions per day: 15.02865147
mean anomaly at epoch: 135.4445°
orbit number at epoch: 56810

The dashed part of the orbit path shows where the satellite is in the earth's shadow,  

DLR